Back to catalog

COSMOS 1275 DEB

AlivePO
NORAD 42187·DEBRIS·🇷🇺 Russia

Launched Jun 4, 1981 from Plesetsk Cosmodrome

Loading…

Next Passes (next 24 hours)

TLE

AgingSource: Space-Track

Epoch: Sep 6, 2026, 21:38 UTC

1 42187U 81053TB  26249.90165981  .00001473  00000-0  88355-3 0  9998
2 42187  82.9632  97.4116 0056163 120.1821 240.4932 14.05549191651452

Track COSMOS 1275 DEB in real time with AllMySat

Download on the App Store